Terminal Aerodrome Forecast
Issued by NWS Twin Cities, MN

Home | Current Version | Previous Version | Graphics & Text | Print | Product List | Glossary On
Versions: 1 2 3 4 5 6 7 8 9 10 11 12 13 14 15 16
000
FTUS43 KMPX 251733
TAFEAU
TAF
KEAU 251733Z 2518/2618 33010KT P6SM OVC020
      TEMPO 2519/2521 BKN030
     FM252100 32011G17KT P6SM BKN030
     FM260000 33006KT P6SM SCT035
     FM260900 01003KT P6SM SKC
      TEMPO 2609/2612 2SM BR
     FM261400 35006KT P6SM SKC=

USA.gov is the U.S. government's official web portal to all federal, state and local government web resources and services.